Location: Newark
(35.6799°N, 139.7636°E)
Time: 15:00:49
(UTC+00:00)

Transit 2A - Pass Details

Date: 15 December 2019
Orbit: 601 x 958 km, 66.7° (Epoch: 27 January)

Event Time Altitude Azimuth Distance (km) Brightness Sun altitude
Rises 20:42:16 0° 228° (SW) 3,110 8.9 -12.2°
Reaches altitude 10° 20:44:54 10° 238° (WSW) 2,136 8.0 -11.7°
Maximum altitude 20:49:12 33° 302° (WNW) 1,106 6.3 -10.8°
Drops below altitude 10° 20:53:15 10° 7° (N) 2,000 8.0 -10.1°
Sets 20:55:39 0° 17° (NNE) 2,882 8.9 -9.6°
